Date String (YYYY-MM-DD hh:mm:ss) UTC,Instrument flags,absolute air pressure of the measurement (hPa),sample flow rate (lpm),inlet stack bypass flow (lpm),air temperature of the measurement (°C),ambient temperature measured by the external sensor (°C),aerosol sample conditioner tube jacket temperature (°C),OPC LED temperature (°C),internal box temperature (°C),relative humidity of the measurement (%),span deviation,mass concentration of particles derived from Lorenz-Mie calculation of OPC scattering (μg/m³),mass concentration of particles derived from Lorenz-Mie calculation of OPC scattering (μg/m³),mass concentration of particles derived from Lorenz-Mie calculation of OPC scattering (μg/m³)
DateTimeUTC,F1_M11,P_M11,Q1_M11,Q2_M11,T1_M11,T2_M11,T3_M11,T4_M11,T5_M11,U1_M11,ZSPAN_M11,X0_M11,X2_M11,X1_M11
2023-07-17 00:00:00,SystemResetWarning,0833.4,4.99,000.00,028.9,026.7,000.0,037.0,030.6,26.3,0000.3,0017.61,0008.74,0007.95
2023-07-17 00:01:00,SystemResetWarning,0833.3,5.00,000.00,028.8,025.2,000.0,037.0,030.3,27.7,0000.2,0016.89,0008.71,0007.92
2023-07-17 00:02:00,SystemResetWarning,0833.4,5.00,000.00,028.8,024.9,000.0,036.9,030.2,28.3,0000.2,0016.40,0008.69,0007.90
2023-07-17 00:03:00,SystemResetWarning,0833.3,5.02,000.00,028.7,025.3,000.0,036.9,030.0,27.9,0000.1,0016.26,0008.65,0007.86
2023-07-17 00:04:00,SystemResetWarning,0833.3,5.00,000.00,028.7,025.7,000.0,037.0,030.1,28.2,-000.1,0016.54,0008.64,0007.83
2023-07-17 00:05:00,SystemResetWarning,0833.4,4.99,000.00,028.7,026.2,000.0,037.0,030.2,27.0,-000.2,0016.03,0008.58,0007.82
2023-07-17 00:06:00,SystemResetWarning,0833.4,5.00,000.00,028.7,026.7,000.0,037.0,030.4,26.6,-000.0,0015.70,0008.57,0007.81
2023-07-17 00:07:00,SystemResetWarning,0833.4,5.01,000.00,028.8,027.1,000.0,037.1,030.5,26.8,-000.0,0014.98,0008.54,0007.80
2023-07-17 00:08:00,SystemResetWarning,0833.4,5.01,000.00,028.8,027.4,000.0,037.1,030.6,27.1,-000.1,0014.33,0008.51,0007.80
2023-07-17 00:09:00,SystemResetWarning,0833.4,5.00,000.00,028.9,027.7,000.0,037.1,030.7,26.2,0000.3,0014.26,0008.50,0007.79
2023-07-17 00:10:00,SystemResetWarning,0833.3,4.98,000.00,028.9,027.0,000.0,037.1,030.6,26.2,0000.3,0015.07,0008.49,0007.77
2023-07-17 00:11:00,SystemResetWarning,0833.2,5.01,000.00,028.9,025.3,000.0,037.0,030.4,26.0,0000.4,0014.97,0008.51,0007.76
2023-07-17 00:12:00,SystemResetWarning,0833.3,5.00,000.00,028.8,024.9,000.0,036.9,030.2,25.5,0000.4,0015.07,0008.49,0007.74
2023-07-17 00:13:00,SystemResetWarning,0833.2,5.01,000.00,028.7,025.2,000.0,036.9,030.1,25.7,0000.2,0015.41,0008.47,0007.73
2023-07-17 00:14:00,SystemResetWarning,0833.3,5.01,000.00,028.7,025.7,000.0,037.0,030.1,25.5,0000.3,0015.75,0008.52,0007.74
2023-07-17 00:15:00,SystemResetWarning,0833.3,5.00,000.00,028.7,026.2,000.0,037.0,030.3,25.5,0000.1,0016.10,0008.55,0007.74
2023-07-17 00:16:00,SystemResetWarning,0833.3,5.00,000.00,028.7,026.6,000.0,037.0,030.4,25.5,0000.1,0015.99,0008.55,0007.75
2023-07-17 00:17:00,SystemResetWarning,0833.3,5.00,000.00,028.8,027.0,000.0,037.1,030.5,25.2,-000.1,0015.68,0008.54,0007.77
2023-07-17 00:18:00,SystemResetWarning,0833.3,5.00,000.00,028.8,027.4,000.0,037.1,030.6,25.6,0000.1,0016.27,0008.54,0007.79
2023-07-17 00:19:00,SystemResetWarning,0833.3,5.00,000.00,028.9,027.7,000.0,037.1,030.7,26.1,0000.4,0016.37,0008.54,0007.78
2023-07-17 00:20:00,SystemResetWarning,0833.3,4.99,000.00,028.9,027.1,000.0,037.1,030.6,26.9,0000.5,0016.80,0008.52,0007.77
2023-07-17 00:21:00,SystemResetWarning,0833.2,5.00,000.00,028.9,025.4,000.0,037.0,030.4,27.5,0000.6,0017.99,0008.56,0007.78
2023-07-17 00:22:00,SystemResetWarning,0833.2,5.01,000.00,028.8,024.9,000.0,036.9,030.3,27.5,0000.6,0018.24,0008.57,0007.77
2023-07-17 00:23:00,SystemResetWarning,0833.2,5.01,000.00,028.8,025.2,000.0,036.9,030.1,28.2,0000.7,0018.25,0008.55,0007.77
2023-07-17 00:24:00,SystemResetWarning,0833.2,5.00,000.00,028.7,025.6,000.0,037.0,030.1,27.7,0000.7,0018.19,0008.54,0007.76
2023-07-17 00:25:00,SystemResetWarning,0833.2,5.00,000.00,028.7,026.1,000.0,037.0,030.2,26.9,0000.6,0017.96,0008.49,0007.75
2023-07-17 00:26:00,SystemResetWarning,0833.2,5.00,000.00,028.8,026.6,000.0,037.1,030.4,25.8,0000.3,0017.50,0008.48,0007.75
2023-07-17 00:27:00,SystemResetWarning,0833.2,5.00,000.00,028.8,027.0,000.0,037.1,030.5,26.5,0000.5,0017.30,0008.45,0007.74
2023-07-17 00:28:00,SystemResetWarning,0833.2,5.00,000.00,028.9,027.3,000.0,037.1,030.6,27.8,0000.4,0017.30,0008.47,0007.73
2023-07-17 00:29:00,SystemResetWarning,0833.2,5.00,000.00,028.9,027.5,000.0,037.1,030.7,27.5,0000.5,0017.39,0008.50,0007.70
2023-07-17 00:30:00,SystemResetWarning,0833.2,4.99,000.00,028.9,026.4,000.0,037.1,030.5,27.0,0000.3,0017.73,0008.55,0007.70
2023-07-17 00:31:00,SystemResetWarning,0833.1,5.01,000.00,028.8,025.0,000.0,037.0,030.3,27.2,0000.2,0018.48,0008.60,0007.69
2023-07-17 00:32:00,SystemResetWarning,0833.2,5.01,000.00,028.8,024.9,000.0,036.9,030.2,27.1,-000.1,0017.35,0008.58,0007.68
2023-07-17 00:33:00,SystemResetWarning,0833.2,5.01,000.00,028.7,025.3,000.0,037.0,030.1,26.4,-000.2,0017.65,0008.62,0007.70
2023-07-17 00:34:00,SystemResetWarning,0833.2,4.99,000.00,028.7,025.8,000.0,037.0,030.2,26.1,-000.0,0018.01,0008.72,0007.71
2023-07-17 00:35:00,SystemResetWarning,0833.2,5.00,000.00,028.7,026.2,000.0,037.0,030.3,26.2,0000.1,0018.03,0008.73,0007.71
2023-07-17 00:36:00,SystemResetWarning,0833.2,5.01,000.00,028.8,026.7,000.0,037.0,030.4,26.5,0000.6,0018.60,0008.78,0007.71
2023-07-17 00:37:00,SystemResetWarning,0833.2,5.01,000.00,028.8,027.1,000.0,037.1,030.5,27.0,0001.2,0019.80,0008.78,0007.70
2023-07-17 00:38:00,SystemResetWarning,0833.2,4.99,000.00,028.9,027.4,000.0,037.1,030.6,27.7,0001.4,0020.43,0008.85,0007.70
2023-07-17 00:39:00,SystemResetWarning,0833.2,5.00,000.00,028.9,027.7,000.0,037.2,030.7,27.1,0001.4,0021.16,0008.86,0007.69
2023-07-17 00:40:00,SystemResetWarning,0833.2,4.98,000.00,028.9,026.7,000.0,037.1,030.6,25.8,0001.4,0022.13,0008.88,0007.70
2023-07-17 00:41:00,SystemResetWarning,0833.2,5.01,000.00,028.9,025.0,000.0,037.0,030.3,25.2,0001.4,0021.57,0008.84,0007.70
2023-07-17 00:42:00,SystemResetWarning,0833.2,5.01,000.00,028.8,024.8,000.0,036.9,030.2,25.9,0001.1,0020.50,0008.80,0007.71
2023-07-17 00:43:00,SystemResetWarning,0833.2,4.99,000.00,028.7,025.2,000.0,037.0,030.1,26.6,0001.3,0020.93,0008.80,0007.71
2023-07-17 00:44:00,SystemResetWarning,0833.2,5.00,000.00,028.7,025.6,000.0,037.0,030.1,25.8,0001.5,0020.25,0008.78,0007.70
2023-07-17 00:45:00,SystemResetWarning,0833.2,5.00,000.00,028.7,026.1,000.0,037.0,030.2,26.5,0001.4,0019.95,0008.69,0007.67
2023-07-17 00:46:00,SystemResetWarning,0833.2,5.00,000.00,028.7,026.6,000.0,037.1,030.3,26.0,0001.3,0020.64,0008.70,0007.66
2023-07-17 00:47:00,SystemResetWarning,0833.2,5.00,000.00,028.8,027.0,000.0,037.1,030.4,26.4,0000.7,0020.85,0008.71,0007.66
2023-07-17 00:48:00,SystemResetWarning,0833.2,5.01,000.00,028.8,027.3,000.0,037.1,030.6,26.7,0000.3,0019.74,0008.68,0007.65
2023-07-17 00:49:00,SystemResetWarning,0833.2,4.99,000.00,028.9,027.6,000.0,037.1,030.6,26.6,0000.0,0019.62,0008.64,0007.63
2023-07-17 00:50:00,SystemResetWarning,0833.2,4.98,000.00,028.9,026.8,000.0,037.1,030.6,26.6,0000.2,0018.93,0008.61,0007.62
2023-07-17 00:51:00,SystemResetWarning,0833.2,5.00,000.00,028.9,025.3,000.0,037.0,030.3,27.1,0000.3,0017.83,0008.56,0007.60
2023-07-17 00:52:00,SystemResetWarning,0833.2,5.01,000.00,028.8,024.9,000.0,036.9,030.1,27.1,0000.2,0017.44,0008.52,0007.58
2023-07-17 00:53:00,SystemResetWarning,0833.2,5.00,000.00,028.7,025.2,000.0,036.9,030.0,27.8,0000.4,0017.76,0008.49,0007.56
2023-07-17 00:54:00,SystemResetWarning,0833.2,4.99,000.00,028.7,025.6,000.0,037.0,030.1,28.5,0000.7,0016.60,0008.45,0007.55
2023-07-17 00:55:00,SystemResetWarning,0833.2,4.99,000.00,028.7,026.1,000.0,037.0,030.2,27.6,0000.6,0016.20,0008.40,0007.55
2023-07-17 00:56:00,SystemResetWarning,0833.2,5.00,000.00,028.7,026.6,000.0,037.0,030.3,28.2,0000.5,0016.57,0008.35,0007.54
2023-07-17 00:57:00,SystemResetWarning,0833.2,5.01,000.00,028.8,027.0,000.0,037.1,030.5,28.1,0000.7,0016.42,0008.33,0007.53
2023-07-17 00:58:00,SystemResetWarning,0833.2,5.01,000.00,028.8,027.3,000.0,037.1,030.6,27.2,0000.7,0015.30,0008.23,0007.51
2023-07-17 00:59:00,SystemResetWarning,0833.2,4.98,000.00,028.9,027.4,000.0,037.1,030.6,27.7,0000.8,0015.76,0008.20,0007.51
